Weather Roundup
Issued by NWS

Home | Current Version | Previous Version | Graphics & Text | Print | Product List | Glossary Off
Versions: 1 2 3 4 5 6 7 8 9 10 11 12 13 14 15 16 17 18 19 20 21 22 23 24 25 26 27 28 29 30 31 32 33 34 35 36 37 38 39 40 41 42 43 44 45 46 47 48 49 50

000
NZUS93 KARX 221259
HRRWXR

CURRENT HOURLY OBSERVATIONS ACROSS
MUCH OF THE UPPER MISSISSIPPI VALLEY
NATIONAL WEATHER SERVICE LA CROSSE WI
800 AM CDT WED MAR 22 2017


...SOUTHEAST MINNESOTA...


CITY           SKY/WX    TMP DP  RH WIND       PRES   REMARKS
ROCHESTER      CLOUDY    20  10  65 SE8       30.52R WCI  10
ROCHESTER/MAYO FAIR      21   8  57 E6        30.53R WCI  14
WINONA         PTCLDY    27  10  50 SE9       30.58R WCI  17
AUSTIN         CLOUDY    21  12  68 SE8       30.51R WCI  12
ALBERT LEA     CLEAR     21  12  68 E10       30.50S WCI  10
DODGE CENTER   CLOUDY    21  12  68 SE8       30.51R WCI  12
PRESTON        CLEAR     20   7  56 SE7       30.53S WCI  11
OWATONNA       CLOUDY    21  12  68 E6        30.52R WCI  14
FARIBAULT      PTCLDY    21  12  68 CALM      30.53S
$$

...ELSEWHERE IN MINNESOTA...


CITY           SKY/WX    TMP DP  RH WIND       PRES   REMARKS
MINNEAPOLIS    CLOUDY    22   7  52 SE7       30.56R WCI  13
INTNL FALLS    CLEAR      8   1  73 SE6       30.52F WCI  -2
DULUTH         CLOUDY    15   4  61 SE6       30.52F WCI   6
RED WING       CLEAR     23   5  46 E7        30.55R WCI  15
REDWOOD FALLS  PTCLDY    22   9  57 E8        30.49R WCI  12
MANKATO        CLOUDY    23  14  68 E13       30.51F WCI  11
WORTHINGTON    CLOUDY    24  16  71 SE16      30.42F WCI  11
FAIRMONT       CLEAR     24  15  68 SE13      30.48S WCI  12
$$

...SOUTHWEST WISCONSIN...


CITY           SKY/WX    TMP DP  RH WIND       PRES   REMARKS
LA CROSSE      PTCLDY    24   9  52 SE3       30.58R
PRAIRIE DU CHI PTCLDY    24   9  52 E3        30.57R
BOSCOBEL       PTCLDY    24  10  55 E3        30.58R
LONE ROCK      NOT AVBL
PLATTEVILLE    PTCLDY    21  14  73 NE7       30.54R WCI  13
FORT MC COY    PTCLDY    11   8  87 CALM      30.58R
MAUSTON-NEW LI MOSUNNY   17  12  82 CALM      30.56S
VIROQUA        FAIR      21  10  63 E8        30.53R WCI  11
WIS DELLS      MOSUNNY   17  11  78 NE3       30.56R
$$

...ELSEWHERE IN WISCONSIN...


CITY           SKY/WX    TMP DP  RH WIND       PRES   REMARKS
MILWAUKEE      CLOUDY    26  10  50 N9        30.56R WCI  17
MADISON        SUNNY     21  11  65 E5        30.56R WCI  15
GREEN BAY      MOSUNNY   20  11  68 N7        30.60R WCI  11
EAU CLAIRE     NOT AVBL
BLACK RVR FLS  FAIR      12   8  85 CALM      30.58R
MEDFORD        CLEAR     14   7  73 E6        30.52S WCI   5
WAUSAU         SUNNY     18   7  62 E5        30.55R WCI  11
WIS RAPIDS     MOSUNNY   19   9  65 E7        30.58R WCI  10
MARSHFIELD     CLEAR     19   8  62 E7        30.54R WCI  10
RICE LAKE      CLEAR     15  11  83 CALM      30.57R
$$

...NORTHEAST IOWA...


CITY           SKY/WX    TMP DP  RH WIND       PRES   REMARKS
WATERLOO       PTCLDY    22  16  78 E10       30.53R WCI  11
DUBUQUE        PTCLDY    23  13  65 E9        30.54R WCI  13
DECORAH        PTCLDY    21  10  63 E7        30.53R WCI  13
MASON CITY     CLEAR     23  14  68 E14       30.50F WCI  11
CHARLES CITY   CLOUDY    23  12  63 E12       30.53R WCI  12
OELWEIN        PTCLDY    23  14  68 E12       30.54R WCI  12
$$

...ELSEWHERE IN IOWA...


CITY           SKY/WX    TMP DP  RH WIND       PRES   REMARKS
DES MOINES     CLOUDY    30  18  60 E12       30.49R WCI  20
IOWA CITY      CLOUDY    30  22  72 E6        30.54R WCI  24
FORT DODGE     PTCLDY    25  16  68 E9        30.48S WCI  15
MARSHALLTOWN   CLOUDY    25  17  72 E15       30.50R WCI  13
CEDAR RAPIDS   CLOUDY    27  18  69 E14       30.51R WCI  16
$$

...NORTHERN ILLINOIS...


CITY           SKY/WX    TMP DP  RH WIND       PRES   REMARKS
CHICAGO-OHARE  CLOUDY    30  16  56 NE14      30.53R WCI  19
CHICAGO-MIDWAY PTSUNNY   30  17  58 NE17      30.54R WCI  18
MOLINE         MOSUNNY   29  18  63 E14       30.54R WCI  18
ROCKFORD       MOSUNNY   25  10  53 NE12      30.57R WCI  14
PEORIA         MOSUNNY   31  22  69 E12       30.52R WCI  22
$$

NOTE: "FAIR" INDICATES FEW OR NO CLOUDS BELOW 12,000 FEET WITH NO
SIGNIFICANT WEATHER AND/OR OBSTRUCTIONS TO VISIBILITY. WIND
SPEEDS ARE IN MILES-PER-HOUR.




USA.gov is the U.S. government's official web portal to all federal, state and local government web resources and services.